Weather History for San Jose, CA

Change the Weather History Date:

Thursday, November 24, 2011

  Actual Average Record
Temperature  
Mean Temperature 50 °F 55 °F  
Max Temperature 59 °F 65 °F 75 °F (1959)
Min Temperature 41 °F 45 °F 25 °F (1895)
Degree Days  
Heating Degree Days 15 10  
Month to date heating degree days 256 180  
Since 1 July heating degree days 315 262  
Cooling Degree Days 0 0  
Month to date cooling degree days 0 0  
Year to date cooling degree days 565 728  
Moisture  
Dew Point 46 °F    
Average Humidity 81    
Maximum Humidity 96    
Minimum Humidity 66    
Precipitation  
Precipitation 0.01 in 0.06 in 1.00 in (1896)
Month to date precipitation 0.70 1.49  
Year to date precipitation 12.01 12.39  
Since 1 July precipitation 1.47 2.50  
Sea Level Pressure  
Sea Level Pressure 30.06 in    
Wind  
Wind Speed 9 mph (ESE)    
Max Wind Speed 21 mph    
Max Gust Speed 29 mph    
Visibility 10 miles    
Events Rain    
T = Trace of Precipitation, MM = Missing Value Source: NWS Daily Summary

Daily Weather History Graph

Daily Weather History Graph

Search for Another Location

Airport:

Trip Planner

Search our weather history database for the weather conditions in past years. The results will help you decide how hot, cold, wet, or windy it might be!

Date:

Astronomy

Nov. 24, 2011 Rise Set
Actual Time 6:56 AM PST 4:52 PM PST
Civil Twilight 6:27 AM PST 5:20 PM PST
Nautical Twilight 5:55 AM PST 5:52 PM PST
Astronomical Twilight 5:24 AM PST 6:23 PM PST
Moon 6:20 AM PST (11/24) 4:28 PM PST (11/24)
Length of Visible Light 10h 52m
Length of Day
9h 56m
Waning Crescent, 0% of the Moon is Illuminated
Nov 24
Waning Crescent
Nov 24
New
Dec 2
First Quarter
Dec 10
Full
Dec 17
Last Quarter

Hourly Weather History & Observations

Time (PST) Temp. Windchill Dew Point Humidity Pressure Visibility Wind Dir Wind Speed Gust Speed Precip Events Conditions
12:53 AM 55.0 °F - 44.1 °F 67% 29.86 in 10.0 mi East 18.4 mph 24.2 mph N/A   Scattered Clouds
1:53 AM 55.0 °F - 44.1 °F 67% 29.86 in 10.0 mi ESE 17.3 mph 25.3 mph N/A   Mostly Cloudy
2:53 AM 55.0 °F - 45.0 °F 69% 29.88 in 10.0 mi SE 10.4 mph 18.4 mph N/A   Overcast
3:53 AM 55.0 °F - 45.0 °F 69% 29.88 in 10.0 mi SE 11.5 mph - N/A   Overcast
4:53 AM 55.0 °F - 45.0 °F 69% 29.89 in 10.0 mi ESE 11.5 mph - 0.00 in Rain Light Rain
5:53 AM 55.4 °F - 46.4 °F 72% 29.90 in 10.0 mi SE 11.5 mph - N/A Rain Light Rain
6:53 AM 54.0 °F - 46.9 °F 77% 29.94 in 10.0 mi SSE 5.8 mph - 0.00 in   Overcast
7:53 AM 54.0 °F - 46.0 °F 75% 29.97 in 10.0 mi SE 6.9 mph - N/A   Overcast
8:53 AM 55.0 °F - 46.9 °F 74% 30.00 in 10.0 mi SE 10.4 mph - N/A   Mostly Cloudy
9:40 AM 57.2 °F - 48.2 °F 72% 30.02 in 10.0 mi East 9.2 mph - N/A   Mostly Cloudy
9:53 AM 57.9 °F - 48.0 °F 70% 30.02 in 10.0 mi East 12.7 mph - N/A   Mostly Cloudy
10:53 AM 57.9 °F - 48.0 °F 70% 30.05 in 10.0 mi SE 4.6 mph - N/A   Overcast
11:36 AM 57.2 °F - 51.8 °F 82% 30.06 in 6.0 mi Variable 3.5 mph - 0.00 in   Haze
11:53 AM 55.9 °F - 52.0 °F 87% 30.06 in 8.0 mi East 5.8 mph - 0.00 in   Overcast
12:53 PM 55.0 °F - 52.0 °F 89% 30.07 in 8.0 mi NW 9.2 mph - 0.01 in Rain Light Rain
1:53 PM 55.4 °F - 51.8 °F 88% 30.08 in 10.0 mi NW 10.4 mph - N/A   Mostly Cloudy
2:53 PM 55.9 °F - 50.0 °F 80% 30.10 in 10.0 mi NW 13.8 mph - N/A   Mostly Cloudy
3:38 PM 55.4 °F - 46.4 °F 72% 30.12 in 10.0 mi WNW 12.7 mph - N/A   Mostly Cloudy
3:53 PM 55.9 °F - 46.0 °F 69% 30.12 in 10.0 mi NW 10.4 mph - N/A   Mostly Cloudy
4:53 PM 53.1 °F - 45.0 °F 74% 30.14 in 10.0 mi NNW 6.9 mph - N/A   Scattered Clouds
5:53 PM 51.1 °F - 44.1 °F 77% 30.17 in 10.0 mi NW 5.8 mph - N/A   Scattered Clouds
6:53 PM 48.9 °F - 41.0 °F 74% 30.19 in 10.0 mi West 5.8 mph - N/A   Scattered Clouds
7:53 PM 46.9 °F - 43.0 °F 86% 30.20 in 10.0 mi Calm Calm - N/A   Scattered Clouds
8:53 PM 46.0 °F 44.8 °F 41.0 °F 83% 30.22 in 10.0 mi ESE 3.5 mph - N/A   Scattered Clouds
9:53 PM 44.1 °F 41.5 °F 39.0 °F 82% 30.24 in 10.0 mi SE 4.6 mph - N/A   Scattered Clouds
10:53 PM 43.0 °F 41.3 °F 41.0 °F 93% 30.25 in 10.0 mi ESE 3.5 mph - N/A   Partly Cloudy
11:53 PM 42.8 °F 39.3 °F 39.2 °F 87% 30.27 in 10.0 mi ESE 5.8 mph - N/A   Partly Cloudy